[[{"header":{"parameterUnit":"m.s-1","parameterCategory":1,"la1":30.2991,"la2":30.254,"lo1":-89.0895,"lo2":-89.0444,"dy":0.0017,"dx":0.0017,"nx":28,"ny":28,"refTime":"2024-12-21T03:00:00:Z","depth":0,"parameterNumber":2,"parameterNumberName":"U-component_of_WINDS"},"data":[0,0,0,0,0,0,0,0,0,0,0,0,0,0,0,0,0,0,0,0,0,0,0,0,0,0,0,0,0,0,0,0,0,0,0,0,0,0,0,0,0,0,0,0,0,0,0,0,0,0,0,0,0,0,0,0,0,0,-3.1703,-3.1704,0,-3.1761,-3.1762,-3.1763,-3.1625,-3.1621,-3.1616,-3.1612,-3.1674,-3.168,-3.1686,0,0,0,0,0,0,0,0,0,0,0,0,0,-3.1473,-3.1478,-3.1703,-3.1704,-3.1704,-3.1761,-3.1762,-3.1763,-3.1626,-3.1621,-3.1615,-3.161,-3.1672,-3.1679,-3.1686,0,0,0,0,0,0,0,0,0,0,0,0,0,-3.1557,-3.148,-3.1703,-3.1643,-3.1638,-3.1761,-3.1762,-3.1763,-3.1627,-3.162,-3.1614,-3.1608,-3.167,-3.1679,-3.1687,-3.1872,0,0,-3.1713,-3.1717,0,0,0,0,0,0,0,0,-3.1552,-3.1565,-3.1651,-3.1647,-3.1642,-3.1679,-3.1704,-3.18,-3.1629,-3.1631,-3.1612,-3.1604,-3.1681,-3.1689,-3.1714,-3.1875,-3.1877,-3.1714,-3.1719,-3.1723,-3.1725,0,0,0,0,0,0,0,-3.1547,-3.1562,-3.1726,-3.1652,-3.1647,-3.1613,-3.1618,-3.1721,-3.1693,-3.1631,-3.1621,-3.1629,-3.1678,-3.1706,-3.1715,-3.1878,-3.1714,-3.1722,-3.1727,-3.173,-3.2191,-3.2198,0,0,0,0,0,0,-3.1548,-3.1558,-3.1724,-3.1728,-3.158,-3.1623,-3.1628,-3.1674,-3.1691,-3.1687,-3.1635,-3.1623,-3.1695,-3.1705,-3.1716,-3.1933,-3.1723,-3.1731,-3.1736,-3.2184,-3.2193,-3.2201,0,0,0,0,0,0,-3.1544,-3.1564,-3.1722,-3.164,-3.1658,-3.1634,-3.1687,-3.1679,-3.1707,-3.1694,-3.1689,-3.1669,-3.169,-3.1704,-3.1834,-3.1933,-3.1735,-3.1743,-3.2176,-3.2187,-3.2197,-3.2368,0,0,0,0,0,0,-3.1538,-3.1564,-3.1634,-3.1643,-3.1663,-3.1839,-3.1693,-3.1684,-3.1722,-3.1706,-3.1725,-3.1722,-3.1686,-3.1821,-3.1842,-3.1941,-3.1749,-3.2167,-3.2181,-3.2193,-3.2354,-3.2383,-3.2409,0,0,0,0,0,-3.153,-3.1681,-3.1638,-3.1659,-3.175,-3.1845,-3.1856,-3.1811,-3.173,-3.18,-3.1792,-3.1721,-3.1919,-3.1836,-3.1858,-3.1961,-3.2161,-3.2177,-3.2192,-3.2341,-3.2378,-3.2408,0,0,0,0,0,0,-3.1685,-3.1681,-3.1634,-3.1791,-3.1819,-3.1821,-3.1908,-3.1851,-3.1903,-3.1887,-3.1829,-3.1834,-3.1975,-3.1981,-3.1889,-3.214,-3.2026,-3.2047,-3.2131,-3.2166,-3.2193,-3.2189,-3.1757,0,0,0,0,0,-3.1737,-3.1814,-3.1806,-3.1946,-3.1963,-3.1934,-3.1973,-3.1936,-3.1963,-3.1974,-3.1975,-3.2005,-3.2073,-3.2119,-3.2182,-3.2353,-3.2355,-3.2435,-3.2463,-3.2485,-3.2505,-3.2595,-3.263,-3.2253,-3.2253,-3.2253,0,0,-3.1846,-3.1853,-3.1906,-3.1978,-3.1995,-3.2076,-3.1945,-3.2037,-3.2096,-3.1988,-3.211,-3.2112,-3.2141,-3.2292,-3.2359,-3.2301,-3.2609,-3.2506,-3.2524,-3.2531,-3.2615,-3.265,-3.2682,-3.2264,-3.2262,-3.226,0,0,-3.2087,-3.21,-3.2217,-3.2237,-3.2264,-3.2244,-3.2272,-3.2283,-3.2279,-3.24,-3.2321,-3.2391,-3.251,-3.2534,-3.2561,-3.2809,-3.2745,-3.2831,-3.2976,-3.3064,-3.3094,-3.312,-3.3208,-3.324,-3.285,-3.285,-3.285,0,-3.2219,-3.2338,-3.2285,-3.2382,-3.2416,-3.2321,-3.2439,-3.2461,-3.2508,-3.2533,-3.2468,-3.2614,-3.2627,-3.2782,-3.2842,-3.2868,-3.2898,-3.2829,-3.3094,-3.3119,-3.3143,-3.3226,-3.3259,-3.286,-3.2859,-3.2858,-3.2857,0,-3.25,-3.2583,-3.2675,-3.2721,-3.2765,-3.2873,-3.2836,-3.2886,-3.2845,-3.2831,-3.2955,-3.2967,-3.3029,-3.3063,-3.3024,-3.3212,-3.3175,-3.3103,-3.2987,-3.319,-3.3267,-3.3299,-3.2875,-3.2871,-3.2868,-3.2866,0,0,-3.2841,-3.2855,-3.289,-3.2909,-3.2931,-3.2995,-3.3098,-3.3158,-3.3202,-3.3237,-3.3322,-3.3424,-3.3356,-3.3388,-3.335,-3.3428,-3.3622,-3.3345,-3.3345,-3.3396,-3.383,-3.3885,-3.3922,-3.358,-3.3586,-3.359,-3.3827,0,-3.3078,-3.3254,-3.3209,-3.3384,-3.346,-3.3369,-3.3458,-3.3482,-3.3472,-3.3535,-3.3522,-3.3596,-3.3501,-3.352,-3.3592,-3.3583,-3.3709,-3.3565,-3.3658,-3.3662,-3.3654,-3.3963,-3.4021,-3.4244,-3.3857,-3.3862,-3.3866,0,-3.3379,-3.3425,-3.3607,-3.3615,-3.3646,-3.3727,-3.3777,-3.3839,-3.3863,-3.385,-3.3884,-3.3831,-3.3931,-3.3814,-3.3952,-3.3856,-3.3891,-3.3892,-3.39,-3.3907,-3.3777,-3.3979,-3.4315,-3.4348,-3.3913,-3.3909,-3.3906,0,-3.361,-3.3717,-3.3839,-3.3858,-3.3871,-3.393,-3.3939,-3.3956,-3.3995,-3.4039,-3.4063,-3.4119,-3.415,-3.4194,-3.4157,-3.4075,-3.4301,-3.4181,-3.4293,-3.4294,-3.4345,-3.4343,-3.4692,-3.4368,-3.4367,-3.4367,-3.4366,0,-3.388,-3.3995,-3.3943,-3.4018,-3.4144,-3.409,-3.4217,-3.4214,-3.4231,-3.4304,-3.4229,-3.43,-3.4246,-3.4312,-3.4283,-3.4401,-3.4416,-3.4408,-3.4399,-3.4415,-3.4416,-3.4438,-3.4421,-3.4376,-3.4374,-3.4372,-3.437,0,-3.416,-3.4129,-3.4256,-3.4257,-3.426,-3.4353,-3.4354,-3.4424,-3.4407,-3.4501,-3.4519,-3.4493,-3.4567,-3.4533,-3.4611,-3.4591,-3.4744,-3.4714,-3.4736,-3.4728,-3.4842,-3.4832,-3.5217,-3.5265,-3.4911,-3.4914,-3.4917,0,-3.4334,-3.442,-3.443,-3.4474,-3.4487,-3.4558,-3.4596,-3.4546,-3.4589,-3.4622,-3.4688,-3.4755,-3.4805,-3.4927,-3.4915,-3.4974,-3.4945,-3.5076,-3.4953,-3.4966,-3.4947,-3.4942,-3.495,-3.5101,-3.5105,-3.5108,-3.5111,0,-3.4648,-3.4628,-3.4685,-3.4739,-3.4786,-3.4825,-3.4858,-3.4898,-3.4849,-3.4901,-3.4975,-3.5014,-3.5092,-3.5159,-3.521,-3.5218,-3.5157,-3.5149,-3.5178,-3.5196,-3.5205,-3.5201,-3.4803,-3.5141,-3.5138,-3.5136,-3.5134,-3.5133,-3.488,-3.4952,-3.4969,-3.5036,-3.5055,-3.5087,-3.5153,-3.5143,-3.5203,-3.5262,-3.5229,-3.5315,-3.5336,-3.5397,-3.5414,-3.548,-3.5428,-3.5471,-3.5481,-3.5493,-3.5507,-3.5194,-3.5489,-3.5488,-3.5487,-3.5487,-3.5486,0,-3.5189,-3.5195,-3.5257,-3.5305,-3.5357,-3.5294,-3.5326,-3.5374,-3.5451,-3.5475,-3.5526,-3.561,-3.5674,-3.5667,-3.5725,-3.578,-3.5753,-3.5797,-3.5792,-3.5795,-3.5551,-3.552,-3.5817,-3.5817,-3.5817,-3.5817,-3.5817,-3.5817,-3.5356,-3.5474,-3.5456,-3.5583,-3.5588,-3.5671,-3.5695,-3.5724,-3.5742,-3.584,-3.5892,-3.5886,-3.5898,-3.5956,-3.6012,-3.6008,-3.6033,-3.6088,-3.6074,-3.5845,-3.5813,-3.5781,-3.5752,-3.6093,-3.6094,-3.6312,-3.6314,-3.6316]},{"header":{"parameterUnit":"m.s-1","parameterCategory":1,"la1":30.2991,"la2":30.254,"lo1":-89.0895,"lo2":-89.0444,"dy":0.0017,"dx":0.0017,"nx":28,"ny":28,"refTime":"2024-12-21T03:00:00:Z","depth":0,"parameterNumber":3,"parameterNumberName":"V-component_of_WINDS"},"data":[0,0,0,0,0,0,0,0,0,0,0,0,0,0,0,0,0,0,0,0,0,0,0,0,0,0,0,0,0,0,0,0,0,0,0,0,0,0,0,0,0,0,0,0,0,0,0,0,0,0,0,0,0,0,0,0,0,0,-4.2893,-4.2894,0,-4.2971,-4.2972,-4.2973,-4.2931,-4.2928,-4.2926,-4.2924,-4.3,-4.3004,-4.3008,0,0,0,0,0,0,0,0,0,0,0,0,0,-4.2702,-4.2705,-4.2893,-4.2894,-4.2895,-4.2971,-4.2972,-4.2973,-4.2931,-4.2928,-4.2926,-4.2923,-4.2999,-4.3004,-4.3008,0,0,0,0,0,0,0,0,0,0,0,0,0,-4.2783,-4.2707,-4.2893,-4.2883,-4.2883,-4.2971,-4.2972,-4.2974,-4.2931,-4.2928,-4.2925,-4.2922,-4.2997,-4.3003,-4.3009,-4.311,0,0,-4.3027,-4.303,0,0,0,0,0,0,0,0,-4.2778,-4.279,-4.2884,-4.2884,-4.2884,-4.2938,-4.2932,-4.3019,-4.2932,-4.2913,-4.2924,-4.2921,-4.2982,-4.2989,-4.301,-4.3113,-4.3116,-4.3028,-4.3032,-4.3034,-4.3036,0,0,0,0,0,0,0,-4.2773,-4.2786,-4.2924,-4.2885,-4.2885,-4.2873,-4.2881,-4.2949,-4.2964,-4.2914,-4.2912,-4.2922,-4.2981,-4.3005,-4.3012,-4.3118,-4.3028,-4.3033,-4.3037,-4.3039,-4.3303,-4.3306,0,0,0,0,0,0,-4.2768,-4.2782,-4.2921,-4.2926,-4.2822,-4.2879,-4.2888,-4.2924,-4.2963,-4.2966,-4.2924,-4.2919,-4.2996,-4.3005,-4.3014,-4.3132,-4.3034,-4.304,-4.3043,-4.33,-4.3304,-4.3307,0,0,0,0,0,0,-4.2764,-4.2781,-4.2918,-4.2853,-4.287,-4.2886,-4.2926,-4.2927,-4.295,-4.2971,-4.2973,-4.2946,-4.2994,-4.3006,-4.3086,-4.3134,-4.3042,-4.3048,-4.3296,-4.3301,-4.3306,-4.3371,0,0,0,0,0,0,-4.2759,-4.278,-4.282,-4.2855,-4.2874,-4.299,-4.2929,-4.2931,-4.2961,-4.2956,-4.2991,-4.2994,-4.2992,-4.3077,-4.3092,-4.3141,-4.3053,-4.3291,-4.3298,-4.3304,-4.3364,-4.3377,-4.3389,0,0,0,0,0,-4.2752,-4.2835,-4.2822,-4.2839,-4.2924,-4.2993,-4.3004,-4.3001,-4.2966,-4.3005,-4.3017,-4.2993,-4.3127,-4.3086,-4.3102,-4.3154,-4.3288,-4.3296,-4.3303,-4.3359,-4.3375,-4.3388,0,0,0,0,0,0,-4.2805,-4.2839,-4.2826,-4.2922,-4.2955,-4.2986,-4.3036,-4.3019,-4.3062,-4.3054,-4.3048,-4.3056,-4.3139,-4.3154,-4.3107,-4.3251,-4.3202,-4.3213,-4.3238,-4.3253,-4.3265,-4.3259,-4.3058,0,0,0,0,0,-4.2828,-4.2883,-4.291,-4.2992,-4.301,-4.302,-4.305,-4.3045,-4.3078,-4.3092,-4.311,-4.3142,-4.3191,-4.3223,-4.327,-4.3366,-4.3372,-4.341,-4.3422,-4.3432,-4.3441,-4.349,-4.3507,-4.3333,-4.3333,-4.3332,0,0,-4.2876,-4.2901,-4.2936,-4.3003,-4.3028,-4.3083,-4.3032,-4.3093,-4.3133,-4.31,-4.3177,-4.3191,-4.3226,-4.3314,-4.3354,-4.3329,-4.349,-4.3442,-4.3449,-4.3453,-4.35,-4.3516,-4.3531,-4.3338,-4.3337,-4.3336,0,0,-4.299,-4.3017,-4.3087,-4.3113,-4.3151,-4.3157,-4.3174,-4.3207,-4.3216,-4.3293,-4.3268,-4.3315,-4.34,-4.3425,-4.3449,-4.3571,-4.3549,-4.3586,-4.3649,-4.3697,-4.3711,-4.3723,-4.3764,-4.3779,-4.3596,-4.3596,-4.3596,0,-4.3045,-4.3128,-4.3125,-4.3188,-4.3216,-4.319,-4.326,-4.3284,-4.3336,-4.3355,-4.3328,-4.3432,-4.3454,-4.3546,-4.3576,-4.3597,-4.3613,-4.3582,-4.371,-4.3722,-4.3733,-4.3772,-4.3788,-4.36,-4.3599,-4.3599,-4.3599,0,-4.3191,-4.325,-4.3301,-4.3352,-4.3387,-4.3453,-4.3457,-4.3492,-4.3483,-4.3491,-4.3568,-4.3593,-4.3643,-4.3665,-4.3657,-4.3755,-4.3738,-4.3711,-4.366,-4.3754,-4.379,-4.3805,-4.3606,-4.3604,-4.3603,-4.3602,0,0,-4.3342,-4.3389,-4.3408,-4.3429,-4.3469,-4.3513,-4.3576,-4.3625,-4.3654,-4.369,-4.3741,-4.3813,-4.3786,-4.3814,-4.3808,-4.3851,-4.3942,-4.3817,-4.3818,-4.3838,-4.4048,-4.4067,-4.4085,-4.3928,-4.3931,-4.3934,-4.4044,0,-4.3458,-4.357,-4.3568,-4.3671,-4.3722,-4.3697,-4.3752,-4.3781,-4.3789,-4.3833,-4.3842,-4.3892,-4.3855,-4.3871,-4.3912,-4.3922,-4.3984,-4.3914,-4.3973,-4.3975,-4.3964,-4.4104,-4.4126,-4.4229,-4.4059,-4.4061,-4.4063,0,-4.3608,-4.3649,-4.3757,-4.3787,-4.3808,-4.3858,-4.3901,-4.3944,-4.3975,-4.3978,-4.4008,-4.3995,-4.4056,-4.4005,-4.4088,-4.4041,-4.4065,-4.4073,-4.4077,-4.4081,-4.4024,-4.411,-4.4263,-4.4277,-4.4086,-4.4084,-4.4082,0,-4.3704,-4.3786,-4.3861,-4.388,-4.3917,-4.3952,-4.3969,-4.3997,-4.4026,-4.4063,-4.4081,-4.4125,-4.4149,-4.4182,-4.4181,-4.4144,-4.4264,-4.4213,-4.4266,-4.4266,-4.4291,-4.4289,-4.4447,-4.431,-4.4309,-4.4309,-4.4309,0,-4.3832,-4.3899,-4.3904,-4.395,-4.4023,-4.4018,-4.409,-4.4103,-4.4128,-4.4174,-4.4155,-4.4198,-4.4194,-4.4237,-4.4236,-4.4303,-4.4314,-4.4317,-4.4315,-4.4317,-4.4317,-4.4332,-4.4324,-4.4313,-4.4312,-4.4311,-4.4311,0,-4.3952,-4.3958,-4.4037,-4.4066,-4.4074,-4.4126,-4.4149,-4.4191,-4.4198,-4.4256,-4.427,-4.4279,-4.4329,-4.4331,-4.4387,-4.4386,-4.4467,-4.4459,-4.4457,-4.4455,-4.4506,-4.4501,-4.4678,-4.47,-4.455,-4.4552,-4.4553,0,-4.4032,-4.4083,-4.4116,-4.4146,-4.4165,-4.4214,-4.4243,-4.424,-4.4271,-4.4309,-4.4345,-4.4393,-4.4431,-4.451,-4.4521,-4.4564,-4.4555,-4.4614,-4.4561,-4.4561,-4.4553,-4.4549,-4.4553,-4.4624,-4.4625,-4.4627,-4.4628,0,-4.4174,-4.4174,-4.4218,-4.4262,-4.4298,-4.4332,-4.4364,-4.4389,-4.4389,-4.4425,-4.4475,-4.4505,-4.4562,-4.4608,-4.4649,-4.4664,-4.4645,-4.4645,-4.4658,-4.466,-4.4656,-4.4657,-4.4483,-4.464,-4.4639,-4.4638,-4.4637,-4.4637,-4.4275,-4.4318,-4.4347,-4.4396,-4.4419,-4.4449,-4.4489,-4.4501,-4.4543,-4.459,-4.4586,-4.4641,-4.4668,-4.4721,-4.4739,-4.478,-4.476,-4.4781,-4.4786,-4.479,-4.4795,-4.4651,-4.4788,-4.4788,-4.4787,-4.4787,-4.4787,0,-4.4413,-4.4431,-4.4476,-4.4521,-4.4558,-4.4539,-4.4572,-4.4604,-4.4654,-4.4681,-4.4718,-4.4775,-4.4819,-4.4833,-4.4876,-4.4906,-4.4898,-4.4917,-4.4914,-4.4917,-4.4812,-4.4795,-4.4923,-4.4923,-4.4922,-4.4922,-4.4922,-4.4922,-4.449,-4.456,-4.4564,-4.4644,-4.4661,-4.4716,-4.4736,-4.4762,-4.4784,-4.4848,-4.4885,-4.4895,-4.4916,-4.4959,-4.4998,-4.5001,-4.5016,-4.5038,-4.5037,-4.4938,-4.4925,-4.4912,-4.4895,-4.5042,-4.5042,-4.5138,-4.5139,-4.514]}]]